Regional Weather Roundup
Issued by NWS

Home | Current Version | Previous Version | Text Only | Print | Product List | Glossary Off
Versions: 1 2 3 4 5 6 7 8 9 10 11 12 13 14 15 16 17 18 19 20 21 22 23 24 25 26 27 28 29 30 31 32 33 34 35 36 37 38 39 40 41 42 43 44 45 46 47 48 49 50

463
ASUS43 KMPX 240601
RWRMN
WEATHER ROUNDUP FOR MINNESOTA
NATIONAL WEATHER SERVICE TWIN CITIES/CHANHASSEN MN
100 AM CDT SUN SEP 24 2017


NOTE: "FAIR" INDICATES FEW OR NO CLOUDS BELOW 12,000 FEET WITH NO
SIGNIFICANT WEATHER AND/OR OBSTRUCTIONS TO VISIBILITY. N/A MEANS
CURRENT SKY AND/OR WEATHER CONDITIONS ARE NOT AVAILABLE.

MNZ060>063-068>070-240700-
   Twin Cities Metro

CITY           SKY/WX    TMP DP  RH WIND       PRES   REMARKS
TWIN CITIES    CLOUDY    78  65  63 S8        29.94S
6HR MIN TEMP:  78; 6HR MAX TEMP:  84;

ST PAUL        CLOUDY    73  67  81 SE12      29.94S
CRYSTAL        CLOUDY    69  65  86 N3        29.93S
BLAINE         MOCLDY    70  70 100 CALM      29.95S
LAKEVILLE      PTCLDY    70  64  83 CALM      29.95S
EDEN PRAIRIE   MOCLDY    72  69  90 SE5       29.93S
6HR MIN TEMP:  72; 6HR MAX TEMP:  84;

SOUTH ST PAUL  CLOUDY    74  64  71 S6        29.95S
LAKE ELMO      FAIR      73  64  73 S6        29.97R
$$
MNZ001>005-007-008-013>017-022>024-027-028-240700-
   Northwest Minnesota

CITY           SKY/WX    TMP DP  RH WIND       PRES   REMARKS
BEMIDJI        RAIN      54  54  98 E8        29.99F
HALLOCK        DRIZZLE   54  52  94 N7        30.02F
ROSEAU         LGT RAIN  55  50  82 N6        30.03S
WARROAD        LGT RAIN  55  52  88 NE6       30.03S
THIEF RVR FALL LGT RAIN  54  54 100 N5        30.02S FOG
CROOKSTON      RAIN      55  54  94 NE3       30.00F
FOSSTON        DRIZZLE   54  54 100 NE6       29.99F
DETROIT LAKES  RAIN      55  55 100 CALM      29.96F
MOORHEAD       RAIN      55  54  94 NE7       29.94F
PARK RAPIDS    RAIN      58  56  93 NE10      29.96F
MAHNOMEN       RAIN      55  55  97 CALM      29.97F
$$
MNZ006-009>011-018-025>026-240700-
   North Central Minnesota

CITY           SKY/WX    TMP DP  RH WIND       PRES   REMARKS
BAUDETTE       LGT RAIN  55  54  96 NE3       30.02S
FLAG ISLAND    LGT RAIN  55  52  88 NE3       30.02R
INTL FALLS     CLOUDY    57  54  89 CALM      30.02R
6HR MIN TEMP:  56; 6HR MAX TEMP:  57;

WASKISH        DRIZZLE   54  54 100 E6        30.01S
BIG FORK       RAIN      55  54  94 CALM      30.03S
LONGVILLE      LGT RAIN  57  55  94 NE3       30.00S
GRAND RAPIDS   LGT RAIN  58  57  97 NE5       30.02F
CRANE LAKE     CLOUDY    57  55  94 CALM      30.04F
ORR            LGT RAIN  55  54  94 CALM      30.02S
COOK           CLOUDY    57  55  94 CALM      30.06R
WALKER         RAIN      56  55  98 CALM      30.01S
$$
MNZ012-019>021-037-240700-
   Northeast Minnesota

CITY           SKY/WX    TMP DP  RH WIND       PRES   REMARKS
DULUTH         CLOUDY    64  64 100 NE5       29.99R THUNDER
6HR MIN TEMP:  64; 6HR MAX TEMP:  70; 6HR PCP: TRACE;

ELY            TSTM      59  59 100 CALM      30.04R
HIBBING        RAIN      58  58 100 N3        30.03R FOG
EVELETH        TSTM      60  57  89 N9        30.02R
DULUTH HARBOR  CLOUDY    66  64  94 E8        29.97S
GRAND MARAIS     N/A     66  65  96 CALM      29.98S
$$
MNZ029>031-032-039>041-046>048-054>057-064-240700-
   West Central Minnesota

CITY           SKY/WX    TMP DP  RH WIND       PRES   REMARKS
FERGUS FALLS   DRIZZLE   57  57 100 E13G21    29.92F
WHEATON        CLOUDY    57  57 100 E7        29.92F
ALEXANDRIA     RAIN      61  59  93 W8        30.00R FOG
ELBOW LAKE     CLOUDY    59  59 100 SE8       29.95F
WADENA         HVY RAIN  57  57 100 NE9       29.96R
GLENWOOD       CLOUDY    61  59  94 NW9       29.99R
APPLETON       CLOUDY    63  57  82 SE7       29.93F
BENSON         CLOUDY    63  59  88 NE3       29.97S
ORTONVILLE     RAIN      61  59  94 N3        29.93S
MADISON        CLOUDY    63  63 100 E5        29.93S
WILLMAR        CLOUDY    64  64 100 NW6       29.97R
$$
MNZ033>034-036-042>043-049>051-058-059-240700-
   Central Minnesota

CITY           SKY/WX    TMP DP  RH WIND       PRES   REMARKS
ST CLOUD       CLOUDY    64  64 100 NE5       29.94F
6HR MIN TEMP:  64; 6HR MAX TEMP:  70; 6HR PCP:  1.38;

SAUK CENTRE    CLOUDY    60  60  98 E6        29.94S
PAYNESVILLE    MOCLDY    63  63 100 NE7       29.94S
AITKIN         LGT RAIN  59  57  94 NE6       29.96F
PINE RIVER     LGT RAIN  55  54  94 NW5       30.04S
BRAINERD       CLOUDY    60  59  96 N6        29.97F
STAPLES        CLOUDY    57  57 100 E6        29.94F
LITTLE FALLS   CLOUDY    61  59  94 CALM      29.95F
LITCHFIELD     CLOUDY    66  66 100 E5        29.94S FOG
BUFFALO        CLOUDY    66  64  90 NE3       29.95F
MAPLE LAKE     PTCLDY    66  65  96 CALM      29.95S
HUTCHINSON     CLOUDY    67  66  97 E6        29.94F
$$
MNZ037-044-045-052-053-240700-
   East Central Minnesota

CITY           SKY/WX    TMP DP  RH WIND       PRES   REMARKS
PRINCETON      CLOUDY    66  64  94 CALM      29.95F
MORA           PTCLDY    63  63 100 CALM      29.98R
RUSH CITY      PTCLDY    67  65  92 CALM      29.96S
MOOSE LAKE     CLOUDY    63  61  94 NE5       29.96S
HINCKLEY       FAIR      66  64  94 NE5       29.96F
CLOQUET        CLOUDY    64  61  88 W7G18     30.03R
MCGREGOR       CLOUDY    63  61  94 NE5       29.99R
$$
MNZ071>073-080-081-089-090-097-098-240700-
   Southwest Minnesota

CITY           SKY/WX    TMP DP  RH WIND       PRES   REMARKS
MONTEVIDEO     CLOUDY    59  59 100 NE6       29.95F
GRANITE FALLS  CLOUDY    60  59  98 NW7       29.96F FOG
CANBY          CLOUDY    59  58  96 CALM      29.94F
MARSHALL       CLOUDY    57  56  96 N6        29.95F
REDWOOD FALLS  CLOUDY    61  59  93 W10       29.94R FOG
OLIVIA         CLOUDY    64  63  94 W5        29.93R
PIPESTONE      CLOUDY    57  55  94 NE7       29.93F FOG
WORTHINGTON    CLOUDY    61  60  97 NW7       29.95R
JACKSON        CLEAR     68  61  77 CALM      29.95S
TRACY          FOG       57  58 100 N6        29.96S VSB 1/2
SLAYTON        HAZE      57  50  76 N7        29.96S VSB 1
$$
MNZ065>067-074>077-082>085-091>093-240700-
   South Central Minnesota

CITY           SKY/WX    TMP DP  RH WIND       PRES   REMARKS
MANKATO        PTCLDY    71  65  81 SE6       29.95R
NEW ULM        PTCLDY    66  64  94 E3        29.92F
ST JAMES       CLEAR     66  64  94 CALM      29.94S
FARIBAULT      PTCLDY    72  63  73 CALM      29.96F
OWATONNA       CLOUDY    75  64  69 SE8       29.97S
WASECA         PTCLDY    72  64  78 SE6       29.97S
ALBERT LEA     MOCLDY    73  64  73 SE6       29.98S
$$
MNZ078>079-086>088-094>096-240700-
   Southeast Minnesota

CITY           SKY/WX    TMP DP  RH WIND       PRES   REMARKS
ROCHESTER      CLEAR     70  63  78 S8        30.01R
6HR MIN TEMP:  70; 6HR MAX TEMP:  82;

RED WING       PTCLDY    75  61  60 CALM      29.96R
STANTON        PTCLDY    72  64  75 S3        29.95S
DODGE CENTER   CLEAR     68  63  83 SE6       29.99S
WINONA         CLEAR     70  66  88 CALM      29.99R
AUSTIN         PTCLDY    72  63  73 S3        29.99S
PRESTON        CLEAR     70  61  73 S3        30.02R
$$
ABBREVIATIONS USED IN REMARKS
   TC - TEMPERATURES IN CELSIUS
  WCI - WIND CHILL INDEX
   HX - HEAT INDEX
  VSB - VISIBILITY
$$




USA.gov is the U.S. government's official web portal to all federal, state and local government web resources and services.